Date String (YYYY-MM-DD hh:mm:ss) UTC,Instrument flags,Ambient pressure (hPa),Sample flow (lpm),Bypass flow (lpm),Sample temperature (°C),Ambient temperature (°C),ASC tube jacket temperature (°C),LED temperature (°C),Box temperature (°C),Sample RH (%),Span deviation,Mass concentration (μg/m³),Mass concentration (μg/m³),Mass concentration (μg/m³)
DateTimeUTC,F1_M11,P_M11,Q1_M11,Q2_M11,T1_M11,T2_M11,T3_M11,T4_M11,T5_M11,U1_M11,ZSPAN_M11,X0_M11,X2_M11,X1_M11
2022-12-03 03:00:00,,0827.3,5.00,0.00,21.3,19.7,00.0,30.4,22.8,08.3,0000.0,0002.33,0000.94,0000.50
2022-12-03 03:01:00,,0827.1,5.02,0.00,21.4,21.1,00.0,30.4,23.1,08.3,0000.0,0002.19,0000.88,0000.49
2022-12-03 03:02:00,,0827.4,4.98,0.00,21.5,21.8,00.0,30.4,23.4,08.3,0000.0,0002.22,0000.88,0000.49
2022-12-03 03:03:00,,0827.4,4.99,0.00,21.6,21.4,00.0,30.4,23.4,08.4,0000.0,0002.13,0000.89,0000.49
2022-12-03 03:04:00,,0827.4,5.00,0.00,21.5,21.0,00.0,30.5,23.3,08.4,0000.0,0002.16,0000.88,0000.49
2022-12-03 03:05:00,,0827.4,5.01,0.00,21.5,20.5,00.0,30.5,23.1,08.4,0000.0,0003.20,0000.88,0000.51
2022-12-03 03:06:00,,0827.5,5.00,0.00,21.5,20.2,00.0,30.5,23.1,08.4,0000.0,0003.16,0000.90,0000.52
2022-12-03 03:07:00,,0827.5,5.00,0.00,21.4,19.9,00.0,30.5,23.0,08.5,0000.0,0003.15,0000.94,0000.53
2022-12-03 03:08:00,,0827.5,5.00,0.00,21.4,19.7,00.0,30.4,23.0,08.3,0000.0,0003.25,0000.98,0000.53
2022-12-03 03:09:00,,0827.6,5.01,0.00,21.4,20.1,00.0,30.4,23.0,08.3,0000.0,0003.27,0001.00,0000.54
2022-12-03 03:10:00,,0827.7,5.00,0.00,21.5,21.3,00.0,30.3,23.3,08.2,0000.0,0003.25,0000.99,0000.54
2022-12-03 03:11:00,,0827.6,5.00,0.00,21.6,22.0,00.0,30.4,23.6,08.2,0000.0,0003.29,0001.02,0000.56
2022-12-03 03:12:00,,0827.7,4.99,0.00,21.7,21.6,00.0,30.4,23.6,08.3,0000.0,0003.53,0001.07,0000.58
2022-12-03 03:13:00,,0827.7,4.99,0.00,21.6,21.0,00.0,30.5,23.4,08.3,0000.0,0003.61,0001.10,0000.60
2022-12-03 03:14:00,,0827.6,5.00,0.00,21.6,20.4,00.0,30.5,23.3,08.3,0000.0,0003.79,0001.17,0000.63
2022-12-03 03:15:00,,0827.6,5.00,0.00,21.5,20.0,00.0,30.5,23.1,08.3,0000.0,0003.70,0001.20,0000.65
2022-12-03 03:16:00,,0827.5,5.00,0.00,21.5,19.7,00.0,30.5,23.0,08.3,0000.0,0002.54,0001.23,0000.66
2022-12-03 03:17:00,,0827.5,5.00,0.00,21.4,19.6,00.0,30.5,23.0,08.3,0000.0,0002.44,0001.21,0000.68
2022-12-03 03:18:00,,0827.5,5.00,0.00,21.4,19.6,00.0,30.5,23.0,08.3,0000.0,0002.49,0001.19,0000.69
2022-12-03 03:19:00,,0827.5,5.00,0.00,21.4,19.5,00.0,30.4,23.0,08.5,0000.0,0002.54,0001.20,0000.69
2022-12-03 03:20:00,,0827.5,5.00,0.00,21.3,19.4,00.0,30.4,22.9,08.6,0000.0,0002.71,0001.25,0000.71
2022-12-03 03:21:00,,0827.3,5.00,0.00,21.3,19.4,00.0,30.4,22.8,08.7,0000.0,0002.85,0001.27,0000.73
2022-12-03 03:22:00,,0827.3,5.01,0.00,21.4,20.5,00.0,30.3,23.1,08.7,0000.0,0002.99,0001.30,0000.73
2022-12-03 03:23:00,,0827.1,5.00,0.00,21.5,21.8,00.0,30.2,23.4,08.7,0000.0,0002.90,0001.30,0000.74
2022-12-03 03:24:00,,0827.2,4.99,0.00,21.6,22.0,00.0,30.3,23.5,08.5,0000.0,0002.96,0001.34,0000.74
2022-12-03 03:25:00,,0827.4,4.99,0.00,21.6,21.2,00.0,30.4,23.3,08.4,0000.0,0002.85,0001.34,0000.74
2022-12-03 03:26:00,,0827.3,5.01,0.00,21.5,20.3,00.0,30.4,23.1,08.3,0000.0,0002.82,0001.34,0000.74
2022-12-03 03:27:00,,0827.3,5.00,0.00,21.4,19.6,00.0,30.4,22.9,08.4,0000.0,0002.76,0001.28,0000.72
2022-12-03 03:28:00,,0827.3,4.99,0.00,21.3,19.2,00.0,30.4,22.7,08.4,0000.0,0002.84,0001.29,0000.72
2022-12-03 03:29:00,,0827.4,5.01,0.00,21.2,18.8,00.0,30.4,22.5,08.6,0000.0,0002.75,0001.28,0000.73
2022-12-03 03:30:00,,0827.4,5.01,0.00,21.1,18.5,00.0,30.3,22.5,08.6,0000.0,0003.08,0001.28,0000.73
2022-12-03 03:31:00,,0827.5,5.00,0.00,21.1,19.1,00.0,30.2,22.5,08.4,0000.0,0003.87,0001.27,0000.72
2022-12-03 03:32:00,,0827.6,5.00,0.00,21.2,20.6,00.0,30.1,22.9,08.5,0000.0,0003.77,0001.26,0000.72
2022-12-03 03:33:00,,0827.7,5.00,0.00,21.3,21.7,00.0,30.1,23.2,08.4,0000.0,0003.56,0001.21,0000.71
2022-12-03 03:34:00,,0827.6,4.99,0.00,21.4,21.4,00.0,30.2,23.2,08.5,0000.0,0003.52,0001.20,0000.69
2022-12-03 03:35:00,,0827.5,4.99,0.00,21.3,20.7,00.0,30.2,22.9,08.6,0000.0,0003.35,0001.13,0000.68
2022-12-03 03:36:00,,0827.5,5.00,0.00,21.3,20.0,00.0,30.3,22.8,08.5,0000.0,0003.32,0001.11,0000.67
2022-12-03 03:37:00,,0827.5,5.00,0.00,21.2,19.4,00.0,30.3,22.6,08.6,0000.0,0003.39,0001.09,0000.68
2022-12-03 03:38:00,,0827.6,5.00,0.00,21.1,19.0,00.0,30.2,22.5,08.7,0000.0,0003.41,0001.11,0000.68
2022-12-03 03:39:00,,0827.6,5.00,0.00,21.0,18.6,00.0,30.2,22.3,08.6,0000.0,0003.51,0001.10,0000.67
2022-12-03 03:40:00,,0827.7,5.01,0.00,20.9,18.4,00.0,30.2,22.3,08.4,0000.0,0004.34,0001.08,0000.65
2022-12-03 03:41:00,,0827.7,5.01,0.00,20.9,19.6,00.0,30.0,22.5,08.4,0000.0,0003.98,0001.07,0000.64
2022-12-03 03:42:00,,0827.7,5.00,0.00,21.1,21.0,00.0,30.0,22.9,08.3,0000.0,0003.04,0001.06,0000.64
2022-12-03 03:43:00,,0827.8,5.00,0.00,21.2,21.7,00.0,30.0,23.1,08.4,0000.0,0003.01,0001.05,0000.65
2022-12-03 03:44:00,,0827.8,4.98,0.00,21.2,20.9,00.0,30.1,22.9,08.5,0000.0,0003.29,0001.09,0000.66
2022-12-03 03:45:00,,0827.9,5.00,0.00,21.1,20.0,00.0,30.1,22.7,08.5,0000.0,0004.29,0001.10,0000.66
2022-12-03 03:46:00,,0827.9,5.02,0.00,21.0,19.4,00.0,30.1,22.5,08.6,0000.0,0005.32,0001.15,0000.68
2022-12-03 03:47:00,,0827.9,4.98,0.00,21.0,18.9,00.0,30.1,22.4,08.7,0000.0,0005.32,0001.16,0000.70
2022-12-03 03:48:00,,0827.9,5.01,0.00,20.9,18.5,00.0,30.0,22.2,08.8,0000.0,0005.38,0001.23,0000.72
2022-12-03 03:49:00,,0827.9,5.01,0.00,20.8,18.8,00.0,30.0,22.2,08.9,0000.0,0005.73,0001.34,0000.76
2022-12-03 03:50:00,,0827.9,5.00,0.00,20.9,20.3,00.0,29.9,22.5,09.0,0000.0,0006.25,0001.44,0000.80
2022-12-03 03:51:00,,0827.9,5.00,0.00,21.0,21.4,00.0,29.9,22.9,09.0,0000.0,0005.52,0001.53,0000.86
2022-12-03 03:52:00,,0827.9,4.98,0.00,21.1,21.3,00.0,29.9,22.9,09.0,0000.0,0005.79,0001.65,0000.94
2022-12-03 03:53:00,,0827.9,5.00,0.00,21.1,20.5,00.0,30.0,22.7,09.0,0000.0,0006.12,0001.76,0001.01
2022-12-03 03:54:00,,0828.0,5.01,0.00,21.0,19.7,00.0,30.0,22.5,08.9,0000.0,0007.20,0001.88,0001.06
2022-12-03 03:55:00,,0828.0,4.99,0.00,20.9,19.0,00.0,30.0,22.3,09.0,0000.0,0007.65,0002.00,0001.12
2022-12-03 03:56:00,,0828.0,5.01,0.00,20.8,18.4,00.0,30.0,22.1,09.3,0000.0,0008.42,0002.13,0001.21
2022-12-03 03:57:00,,0828.1,5.01,0.00,20.7,18.2,00.0,29.9,22.0,09.4,0000.0,0008.30,0002.23,0001.31
2022-12-03 03:58:00,,0828.1,4.99,0.00,20.7,19.4,00.0,29.8,22.2,09.5,0000.0,0008.56,0002.34,0001.38
2022-12-03 03:59:00,,0828.1,5.01,0.00,20.9,20.9,00.0,29.8,22.6,09.4,0000.0,0009.28,0002.51,0001.46
